Weather History for KYIP - September, 2014

Change the Weather History Date:

Wednesday, September 3, 2014

  Actual Average (KDTW) Record (KDTW)
Temperature  
Mean Temperature 72 °F 69 °F  
Max Temperature 84 °F 79 °F 100 °F (1953)
Min Temperature 60 °F 60 °F 43 °F (1976)
Degree Days  
Heating Degree Days 0 1  
Month to date heating degree days 3  
Since 1 July heating degree days 13  
Cooling Degree Days 7 5  
Month to date cooling degree days 15  
Year to date cooling degree days 726  
Growing Degree Days 22 (Base 50)    
Moisture  
Dew Point 60 °F    
Average Humidity 71    
Maximum Humidity 86    
Minimum Humidity 44    
Precipitation  
Precipitation 0.00 in 0.10 in 3.21 in (1879)
Month to date precipitation 0.32  
Year to date precipitation 22.75  
Snow  
Snow 0.00 in 0.00 in 0.00 in ()
Month to date snowfall 0.0  
Since 1 July snowfall 0.0  
Since 1 September snowfall 0.0  
Snow Depth -    
Sea Level Pressure  
Sea Level Pressure 30.01 in    
Wind  
Wind Speed 3 mph (South)    
Max Wind Speed 12 mph    
Max Gust Speed -    
Visibility 8 miles    
Events      
T = Trace of Precipitation, MM = Missing Value Source: NWS Daily Summary

Daily Weather History Graph

Daily Weather History Graph

Search for Another Location

Airport or City:

Trip Planner

Search our weather history database for the weather conditions in past years. The results will help you decide how hot, cold, wet, or windy it might be!

Date:

Astronomy

Sep. 03, 2014 Rise Set
Actual Time 7:01 AM EDT 8:04 PM EDT
Civil Twilight 6:32 AM EDT 8:33 PM EDT
Nautical Twilight 5:58 AM EDT 9:07 PM EDT
Astronomical Twilight 5:22 AM EDT 9:43 PM EDT
Moon 3:49 PM EDT (9/3) 12:51 AM EDT (9/3)
Length of Visible Light 14h 00m
Length of Day
13h 03m
Waxing Gibbous, 63% of the Moon is Illuminated
Sep 3
Waxing Gibbous
Sep 8
Full
Sep 15
Last Quarter
Sep 24
New
Oct 1
First Quarter

Hourly Weather History & Observations

Time (EDT) Temp. Heat Index Dew Point Humidity Pressure Visibility Wind Dir Wind Speed Gust Speed Precip Events Conditions
12:53 AM 66.9 °F - 60.1 °F 79% 29.96 in 10.0 mi WSW 4.6 mph - N/A   Clear
1:53 AM 66.9 °F - 60.1 °F 79% 29.97 in 10.0 mi SW 3.5 mph - N/A   Scattered Clouds
2:53 AM 64.9 °F - 59.0 °F 81% 29.97 in 9.0 mi Calm Calm - N/A   Clear
2:58 AM 63.0 °F - 57.9 °F 84% 29.99 in 1.8 mi Calm Calm - N/A   Haze
3:09 AM 63.0 °F - 57.9 °F 84% 29.99 in 3.0 mi Calm Calm - N/A   Haze
3:53 AM 63.0 °F - 57.9 °F 84% 29.97 in 9.0 mi Calm Calm - N/A   Clear
4:28 AM 63.0 °F - 57.9 °F 84% 29.99 in 2.5 mi Calm Calm - N/A   Haze
4:35 AM 63.0 °F - 57.0 °F 81% 30.00 in 9.0 mi Calm Calm - N/A   Clear
4:53 AM 63.0 °F - 57.9 °F 84% 29.98 in 8.0 mi Calm Calm - N/A   Clear
5:00 AM 62.1 °F - 57.0 °F 84% 30.00 in 1.5 mi Calm Calm - N/A   Haze
5:18 AM 60.1 °F - 55.9 °F 86% 30.01 in 0.8 mi South 4.6 mph - N/A   Clear
5:23 AM 61.0 °F - 55.9 °F 83% 30.01 in 3.0 mi SSW 3.5 mph - N/A   Haze
5:49 AM 60.8 °F - 55.4 °F 82% 30.01 in 1.8 mi Calm Calm - N/A   Haze
5:53 AM 61.0 °F - 55.9 °F 83% 30.00 in 0.8 mi Calm Calm - N/A   Haze
6:04 AM 61.0 °F - 55.9 °F 83% 30.02 in 7.0 mi Calm Calm - N/A   Clear
6:53 AM 61.0 °F - 55.9 °F 83% 30.01 in 7.0 mi Calm Calm - N/A   Clear
7:53 AM 62.1 °F - 57.9 °F 86% 30.02 in 7.0 mi Calm Calm - N/A   Clear
8:53 AM 69.1 °F - 62.1 °F 78% 30.04 in 10.0 mi SW 3.5 mph - N/A   Clear
9:53 AM 75.0 °F - 63.0 °F 66% 30.05 in 10.0 mi Calm Calm - N/A   Clear
10:53 AM 78.1 °F - 61.0 °F 56% 30.05 in 10.0 mi Calm Calm - N/A   Clear
11:53 AM 80.1 °F 80.4 °F 57.0 °F 45% 30.04 in 10.0 mi SSE 4.6 mph - N/A   Clear
12:53 PM 82.0 °F 82.1 °F 59.0 °F 45% 30.03 in 10.0 mi Variable 6.9 mph - N/A   Clear
1:53 PM 84.0 °F 84.0 °F 60.1 °F 44% 30.04 in 10.0 mi South 6.9 mph - N/A   Mostly Cloudy
2:53 PM 84.9 °F 85.0 °F 61.0 °F 44% 30.03 in 10.0 mi South 8.1 mph - N/A   Partly Cloudy
3:53 PM 84.0 °F 84.5 °F 62.1 °F 47% 30.02 in 10.0 mi SSE 11.5 mph - N/A   Scattered Clouds
4:53 PM 84.0 °F 84.5 °F 62.1 °F 47% 30.00 in 10.0 mi SSE 9.2 mph - N/A   Clear
5:53 PM 82.9 °F 84.0 °F 63.0 °F 51% 30.01 in 10.0 mi South 9.2 mph - N/A   Clear
6:53 PM 81.0 °F 82.5 °F 64.0 °F 56% 30.01 in 10.0 mi SSE 11.5 mph - N/A   Partly Cloudy
7:53 PM 77.0 °F - 64.0 °F 64% 30.01 in 10.0 mi SSE 8.1 mph - N/A   Clear
8:53 PM 73.9 °F - 64.0 °F 71% 30.02 in 10.0 mi SSE 6.9 mph - N/A   Scattered Clouds
9:53 PM 72.0 °F - 64.0 °F 76% 30.03 in 10.0 mi SE 6.9 mph - N/A   Mostly Cloudy
10:53 PM 73.0 °F - 64.9 °F 76% 30.04 in 10.0 mi SSE 9.2 mph - N/A   Partly Cloudy
11:53 PM 72.0 °F - 64.0 °F 76% 30.04 in 10.0 mi South 6.9 mph - N/A   Clear